Location: Gajan
(43.0218°N, 1.1244°E)
Time: 20:47:00
(UTC+00:00)

N. Korean satellite - Pass Details

Date: 28 September 2021
Orbit: 450 x 495 km, 97.3° (Epoch: 25 October)

Event Time Altitude Azimuth Distance (km) Brightness Sun altitude
Rises 05:15:10 0° 11° (NNE) 2,538 10.4 -7.1°
Reaches altitude 10° 05:17:14 10° 12° (NNE) 1,662 9.5 -6.7°
Maximum altitude 05:20:48 89° 293° (WNW) 490 6.6 -6.1°
Drops below altitude 10° 05:24:25 10° 194° (SSW) 1,672 9.1 -5.4°
Sets 05:26:29 0° 194° (SSW) 2,553 10.1 -5.0°
